�������l�o���
Date,Time,MP-1(��Sv/h),MP-2(��Sv/h),MP-3(��Sv/h),MP-4(��Sv/h),MP-5(��Sv/h),MP-6(��Sv/h),MP-7(��Sv/h),MP-8(��Sv/h),����,����(m/s),���J
2021/07/02,00:00,0.599,0.879,0.572,1.085,0.771,0.363,0.633,0.591,�k�k��,0.8,�L
2021/07/02,00:10,0.600,0.881,0.569,1.086,0.771,0.364,0.632,0.592,-,CALM,�L
2021/07/02,00:20,0.600,0.880,0.568,1.084,0.769,0.363,0.631,0.590,�k,0.6,�L
2021/07/02,00:30,0.598,0.880,0.568,1.084,0.767,0.362,0.632,0.589,�k,0.9,��
2021/07/02,00:40,0.600,0.876,0.568,1.081,0.767,0.363,0.633,0.590,�k,0.9,��
2021/07/02,00:50,0.598,0.879,0.568,1.081,0.771,0.363,0.632,0.592,�k,0.8,��
2021/07/02,01:00,0.598,0.878,0.568,1.081,0.770,0.365,0.633,0.592,�k,1.5,��
2021/07/02,01:10,0.599,0.880,0.568,1.082,0.770,0.362,0.632,0.592,�k,1.5,��
2021/07/02,01:20,0.599,0.878,0.567,1.081,0.768,0.361,0.632,0.593,�k�k��,1.2,��
2021/07/02,01:30,0.600,0.880,0.569,1.082,0.769,0.363,0.632,0.592,�k,1.1,��
2021/07/02,01:40,0.599,0.883,0.567,1.082,0.770,0.363,0.631,0.593,�k�k��,1.2,��
2021/07/02,01:50,0.599,0.881,0.567,1.082,0.768,0.364,0.633,0.592,�k�k��,1.5,��
2021/07/02,02:00,0.600,0.880,0.567,1.081,0.767,0.363,0.632,0.591,�k��,1.1,��
2021/07/02,02:10,0.600,0.881,0.568,1.082,0.768,0.362,0.632,0.594,���k��,0.8,��
2021/07/02,02:20,0.600,0.880,0.567,1.082,0.769,0.363,0.633,0.592,�k��,0.9,��
2021/07/02,02:30,0.600,0.882,0.569,1.081,0.768,0.361,0.632,0.593,�k�k��,1.1,��
2021/07/02,02:40,0.600,0.880,0.568,1.083,0.770,0.362,0.633,0.591,�k��,0.9,��
2021/07/02,02:50,0.600,0.881,0.569,1.081,0.770,0.363,0.633,0.591,�k�k��,1.5,��
2021/07/02,03:00,0.600,0.880,0.568,1.082,0.769,0.363,0.632,0.591,�k�k��,1.5,��
2021/07/02,03:10,0.600,0.880,0.568,1.081,0.770,0.364,0.632,0.593,�k�k��,1.4,��
2021/07/02,03:20,0.601,0.883,0.566,1.082,0.769,0.363,0.632,0.594,�k,2.2,��
2021/07/02,03:30,0.600,0.882,0.568,1.084,0.768,0.362,0.633,0.591,�k�k��,1.5,��
2021/07/02,03:40,0.599,0.883,0.570,1.082,0.771,0.363,0.631,0.593,-,CALM,��
2021/07/02,03:50,0.602,0.880,0.569,1.083,0.771,0.362,0.634,0.591,�k�k��,1.5,��
2021/07/02,04:00,0.600,0.882,0.568,1.082,0.769,0.363,0.634,0.592,�k,2.0,��
2021/07/02,04:10,0.600,0.880,0.569,1.081,0.770,0.363,0.632,0.592,�k,2.6,��
2021/07/02,04:20,0.600,0.881,0.568,1.082,0.769,0.363,0.633,0.593,�k�k��,2.0,��
2021/07/02,04:30,0.601,0.879,0.568,1.082,0.768,0.364,0.633,0.592,�k�k��,3.0,��
2021/07/02,04:40,0.599,0.881,0.570,1.082,0.771,0.363,0.633,0.591,�k�k��,2.6,��
2021/07/02,04:50,0.601,0.881,0.569,1.086,0.770,0.362,0.630,0.593,�k��,2.0,��
2021/07/02,05:00,0.602,0.883,0.569,1.084,0.769,0.364,0.635,0.593,�k��,1.5,��
2021/07/02,05:10,0.602,0.880,0.570,1.083,0.769,0.362,0.634,0.592,�k�k��,2.2,��
2021/07/02,05:20,0.602,0.881,0.569,1.081,0.771,0.363,0.632,0.592,�k�k��,2.3,��
2021/07/02,05:30,0.601,0.883,0.570,1.084,0.771,0.364,0.634,0.592,�k�k��,2.2,��
2021/07/02,05:40,0.602,0.880,0.569,1.081,0.770,0.363,0.633,0.593,�k�k��,1.5,��
2021/07/02,05:50,0.601,0.883,0.568,1.083,0.772,0.362,0.633,0.593,�k�k��,1.5,��
2021/07/02,06:00,0.601,0.883,0.568,1.082,0.772,0.363,0.633,0.593,�k,1.9,��
2021/07/02,06:10,0.600,0.883,0.569,1.083,0.769,0.363,0.634,0.593,�k,1.1,��
2021/07/02,06:20,0.601,0.880,0.568,1.084,0.771,0.364,0.633,0.593,�k�k��,1.1,��
2021/07/02,06:30,0.600,0.880,0.568,1.084,0.769,0.363,0.633,0.592,�k,1.2,��
2021/07/02,06:40,0.600,0.883,0.568,1.083,0.772,0.363,0.633,0.590,�k,0.6,��
2021/07/02,06:50,0.602,0.883,0.570,1.082,0.771,0.361,0.633,0.592,�k�k��,0.9,��
2021/07/02,07:00,0.601,0.882,0.570,1.081,0.771,0.363,0.632,0.592,�k,1.2,��
2021/07/02,07:10,0.599,0.881,0.570,1.082,0.771,0.363,0.632,0.592,�k�k��,1.2,��
2021/07/02,07:20,0.600,0.881,0.571,1.083,0.770,0.363,0.632,0.591,�k�k��,2.3,�L
2021/07/02,07:30,0.599,0.881,0.568,1.082,0.771,0.364,0.632,0.590,�k�k��,1.7,�L
2021/07/02,07:40,0.599,0.882,0.568,1.084,0.771,0.364,0.631,0.590,�k��,2.3,�L
2021/07/02,07:50,0.599,0.882,0.568,1.082,0.772,0.364,0.632,0.592,�k��,2.2,��
2021/07/02,08:00,0.600,0.882,0.569,1.087,0.772,0.362,0.633,0.592,�k��,2.2,��
2021/07/02,08:10,0.599,0.880,0.570,1.083,0.770,0.363,0.632,0.592,�k��,2.6,��
2021/07/02,08:20,0.599,0.879,0.567,1.083,0.771,0.362,0.631,0.591,�k��,2.0,��
2021/07/02,08:30,0.598,0.881,0.568,1.085,0.769,0.361,0.633,0.592,�k�k��,2.3,�L
2021/07/02,08:40,0.600,0.879,0.569,1.084,0.772,0.363,0.632,0.592,�k�k��,1.7,��
2021/07/02,08:50,0.599,0.882,0.568,1.084,0.769,0.361,0.633,0.592,�k�k��,2.2,��
2021/07/02,09:00,0.600,0.881,0.568,1.082,0.770,0.363,0.634,0.591,�k��,2.2,��
2021/07/02,09:10,0.600,0.882,0.568,1.085,0.772,0.362,0.633,0.591,�k��,2.3,��
2021/07/02,09:20,0.601,0.882,0.568,1.086,0.771,0.361,0.632,0.591,�k��,2.0,��
2021/07/02,09:30,0.600,0.881,0.569,1.084,0.771,0.362,0.633,0.591,�k��,1.9,��
2021/07/02,09:40,0.600,0.882,0.569,1.081,0.769,0.361,0.632,0.592,�k��,1.4,��
2021/07/02,09:50,0.600,0.881,0.568,1.083,0.770,0.363,0.632,0.592,�k��,2.0,��
2021/07/02,10:00,0.600,0.881,0.568,1.086,0.772,0.361,0.634,0.591,�k��,1.7,��
2021/07/02,10:10,0.601,0.882,0.567,1.083,0.770,0.362,0.632,0.590,�k��,1.5,��
2021/07/02,10:20,0.602,0.879,0.567,1.084,0.770,0.363,0.631,0.591,���k��,2.2,��
2021/07/02,10:30,0.600,0.880,0.567,1.084,0.772,0.362,0.635,0.592,���k��,2.2,��
2021/07/02,10:40,0.602,0.881,0.569,1.083,0.771,0.362,0.633,0.590,��,2.0,��
2021/07/02,10:50,0.602,0.882,0.568,1.083,0.772,0.362,0.634,0.591,��,2.3,��
2021/07/02,11:00,0.600,0.883,0.569,1.083,0.770,0.362,0.633,0.590,���쓌,2.8,��
2021/07/02,11:10,0.602,0.881,0.568,1.085,0.771,0.363,0.634,0.590,���쓌,2.0,��
2021/07/02,11:20,0.601,0.883,0.568,1.085,0.771,0.362,0.634,0.590,���쓌,2.3,�L
2021/07/02,11:30,0.603,0.883,0.569,1.083,0.769,0.363,0.634,0.592,���쓌,1.9,�L
2021/07/02,11:40,0.604,0.881,0.568,1.083,0.771,0.363,0.633,0.592,���쓌,2.6,��
2021/07/02,11:50,0.603,0.885,0.570,1.084,0.773,0.362,0.634,0.591,���쓌,1.5,�L
2021/07/02,12:00,0.602,0.885,0.571,1.084,0.772,0.362,0.634,0.591,���쓌,2.6,��
2021/07/02,12:10,0.602,0.885,0.570,1.086,0.771,0.362,0.633,0.591,���쓌,2.0,��
2021/07/02,12:20,0.602,0.882,0.569,1.086,0.774,0.362,0.633,0.592,�쓌,2.0,��
2021/07/02,12:30,0.602,0.886,0.569,1.085,0.775,0.363,0.633,0.592,�쓌,1.7,��
2021/07/02,12:40,0.602,0.884,0.571,1.087,0.775,0.363,0.632,0.593,��쓌,1.7,��
2021/07/02,12:50,0.602,0.884,0.570,1.089,0.772,0.363,0.634,0.593,�쓌,2.0,��
2021/07/02,13:00,0.602,0.886,0.571,1.084,0.771,0.362,0.634,0.591,��쓌,2.3,��
2021/07/02,13:10,0.601,0.884,0.570,1.086,0.773,0.362,0.634,0.592,��쓌,2.5,��
2021/07/02,13:20,0.603,0.886,0.571,1.088,0.773,0.363,0.633,0.592,��쓌,1.9,��
2021/07/02,13:30,0.605,0.885,0.571,1.084,0.772,0.362,0.634,0.593,��쓌,2.2,��
2021/07/02,13:40,0.603,0.888,0.570,1.084,0.772,0.363,0.633,0.592,�쓌,1.9,��
2021/07/02,13:50,0.603,0.888,0.570,1.086,0.773,0.364,0.633,0.592,�쓌,1.4,��
2021/07/02,14:00,0.604,0.885,0.568,1.086,0.773,0.364,0.634,0.592,�쓌,0.9,��
2021/07/02,14:10,0.605,0.888,0.571,1.087,0.774,0.363,0.635,0.591,��쓌,1.7,��
2021/07/02,14:20,0.603,0.888,0.571,1.085,0.774,0.364,0.635,0.590,��쓌,2.2,�L
2021/07/02,14:30,0.604,0.888,0.570,1.088,0.771,0.364,0.634,0.592,��쓌,1.9,�L
2021/07/02,14:40,0.603,0.890,0.569,1.086,0.775,0.363,0.634,0.592,�쓌,1.7,�L
2021/07/02,14:50,0.603,0.892,0.569,1.084,0.774,0.363,0.634,0.591,��,1.1,�L
2021/07/02,15:00,0.604,0.891,0.571,1.087,0.775,0.364,0.635,0.592,�k��,0.9,�L
2021/07/02,15:10,0.605,0.891,0.572,1.087,0.774,0.364,0.633,0.594,�k��,1.7,��
2021/07/02,15:20,0.605,0.891,0.573,1.087,0.774,0.363,0.636,0.593,�k��,2.0,��
2021/07/02,15:30,0.602,0.893,0.572,1.087,0.775,0.362,0.636,0.591,�k��,2.5,��
2021/07/02,15:40,0.603,0.892,0.572,1.087,0.777,0.363,0.634,0.591,�k�k��,2.0,�L
2021/07/02,15:50,0.603,0.890,0.571,1.089,0.776,0.363,0.635,0.593,�k��,2.6,�L
2021/07/02,16:00,0.605,0.891,0.571,1.088,0.774,0.364,0.636,0.591,�k��,2.3,��
2021/07/02,16:10,0.604,0.892,0.570,1.087,0.775,0.362,0.635,0.594,�k�k��,2.3,��
2021/07/02,16:20,0.604,0.892,0.570,1.089,0.773,0.361,0.635,0.593,�k�k��,2.6,�L
2021/07/02,16:30,0.604,0.891,0.572,1.089,0.776,0.363,0.633,0.593,�k�k��,2.3,�L
2021/07/02,16:40,0.605,0.894,0.570,1.088,0.778,0.363,0.635,0.592,�k��,2.0,�L
2021/07/02,16:50,0.605,0.891,0.570,1.086,0.775,0.363,0.633,0.592,�k��,2.0,�L
2021/07/02,17:00,0.604,0.892,0.570,1.088,0.775,0.364,0.632,0.594,�k�k��,2.0,�L
2021/07/02,17:10,0.603,0.893,0.570,1.089,0.775,0.364,0.633,0.593,�k�k��,2.8,�L
2021/07/02,17:20,0.604,0.891,0.572,1.089,0.776,0.364,0.634,0.593,�k�k��,2.3,�L
2021/07/02,17:30,0.603,0.893,0.571,1.087,0.776,0.363,0.634,0.592,�k,2.3,�L
2021/07/02,17:40,0.603,0.892,0.571,1.089,0.776,0.364,0.635,0.592,�k�k��,2.6,�L
2021/07/02,17:50,0.603,0.890,0.571,1.089,0.777,0.364,0.635,0.592,�k�k��,2.8,�L
2021/07/02,18:00,0.604,0.889,0.572,1.087,0.774,0.364,0.633,0.593,�k�k��,2.6,�L
2021/07/02,18:10,0.601,0.887,0.571,1.088,0.775,0.364,0.634,0.592,�k�k��,3.3,�L
2021/07/02,18:20,0.601,0.885,0.569,1.087,0.771,0.363,0.634,0.591,�k�k��,3.5,�L
2021/07/02,18:30,0.601,0.883,0.568,1.086,0.771,0.364,0.631,0.590,�k�k��,3.5,�L
2021/07/02,18:40,0.600,0.883,0.568,1.087,0.769,0.363,0.632,0.590,�k�k��,3.2,�L
2021/07/02,18:50,0.597,0.880,0.566,1.083,0.768,0.363,0.632,0.590,�k�k��,3.6,�L
2021/07/02,19:00,0.599,0.877,0.565,1.086,0.766,0.362,0.630,0.589,�k,3.8,�L
2021/07/02,19:10,0.597,0.875,0.563,1.085,0.764,0.364,0.629,0.589,�k,3.8,�L
2021/07/02,19:20,0.594,0.872,0.562,1.081,0.763,0.361,0.630,0.589,�k,4.3,�L
2021/07/02,19:30,0.595,0.872,0.561,1.077,0.762,0.361,0.630,0.588,�k,5.3,�L
2021/07/02,19:40,0.593,0.870,0.562,1.074,0.759,0.361,0.628,0.588,�k,6.2,�L
2021/07/02,19:50,0.593,0.870,0.560,1.073,0.760,0.360,0.628,0.588,�k�k��,6.4,�L
2021/07/02,20:00,0.593,0.868,0.561,1.070,0.758,0.361,0.629,0.587,�k�k��,7.6,�L
2021/07/02,20:10,0.592,0.870,0.562,1.064,0.758,0.360,0.628,0.587,�k,7.4,�L
2021/07/02,20:20,0.592,0.869,0.561,1.067,0.758,0.361,0.628,0.587,�k,7.3,�L
2021/07/02,20:30,0.594,0.867,0.560,1.064,0.759,0.361,0.628,0.587,�k,7.5,�L
2021/07/02,20:40,0.593,0.868,0.560,1.066,0.757,0.360,0.627,0.588,�k,6.7,�L
2021/07/02,20:50,0.592,0.866,0.561,1.063,0.757,0.362,0.627,0.586,�k,6.1,�L
2021/07/02,21:00,0.593,0.866,0.561,1.062,0.758,0.360,0.627,0.587,�k,5.7,�L
2021/07/02,21:10,0.592,0.862,0.560,1.061,0.758,0.361,0.625,0.587,�k,7.0,�L
2021/07/02,21:20,0.592,0.861,0.560,1.058,0.756,0.361,0.626,0.586,�k,6.5,�L
2021/07/02,21:30,0.592,0.862,0.559,1.055,0.754,0.359,0.626,0.584,�k,5.9,�L
2021/07/02,21:40,0.591,0.861,0.559,1.051,0.752,0.361,0.624,0.585,�k,6.1,�L
2021/07/02,21:50,0.590,0.858,0.559,1.051,0.754,0.359,0.624,0.584,�k,6.5,�L
2021/07/02,22:00,0.589,0.859,0.558,1.052,0.753,0.360,0.624,0.583,�k,6.7,�L
2021/07/02,22:10,0.591,0.860,0.557,1.051,0.751,0.360,0.624,0.583,�k,6.7,�L
2021/07/02,22:20,0.589,0.858,0.558,1.052,0.752,0.358,0.625,0.584,�k,6.8,�L
2021/07/02,22:30,0.591,0.858,0.557,1.050,0.752,0.361,0.623,0.583,�k,6.6,�L
2021/07/02,22:40,0.591,0.859,0.558,1.053,0.752,0.357,0.624,0.585,�k�k��,5.6,�L
2021/07/02,22:50,0.588,0.858,0.557,1.051,0.750,0.359,0.623,0.585,�k�k��,5.2,�L
2021/07/02,23:00,0.591,0.859,0.557,1.050,0.753,0.359,0.625,0.584,�k�k��,5.1,�L
2021/07/02,23:10,0.588,0.861,0.557,1.052,0.752,0.360,0.624,0.583,�k�k��,6.6,�L
2021/07/02,23:20,0.590,0.861,0.558,1.054,0.752,0.359,0.624,0.584,�k�k��,5.9,�L
2021/07/02,23:30,0.591,0.862,0.557,1.051,0.752,0.359,0.624,0.584,�k�k��,5.5,�L
2021/07/02,23:40,0.592,0.860,0.557,1.052,0.753,0.359,0.624,0.584,�k�k��,6.1,�L
2021/07/02,23:50,0.590,0.860,0.557,1.055,0.752,0.359,0.623,0.584,�k�k��,6.4,�L
